Historique des mesures à Cassis (13260), France
Quotidien Résumé Fevrier 2, 2018 Unités:  US    Métrique   Métrique/US
« Précédent (Jour)
Suivant (Jour) »
Quotidien Hebdomadaire Mensuel Annuel Période au choix
  Maximum: Minimum: Moyenne:
Température: 32 °F 42.1 °F 45 °F
Point de rosée: 32 °F 26.8 °F 30.6 °F
Humidité: Humidity % 50 % 53 %
Vitesse du vent: WindSpeedKMH mph 0.0 mph 6.5 mph
Rafales: WindSpeedGustKMH mph - -
Vent:- - WSW
Pression: 0 in 29.5 in -
Précipitations: 0.0 in    
Historical Graphs
 
 
Mesures pour : Fevrier 2, 2018
Heure Temperature Point de rosée Pression Vent Vitesse du vent Rafales Humidité Pluie (par heure)
32 °F 32 °F 0 in Calm     Humidity % HourlyPrecipMM in
00:12 46 °F 33.6 °F 29.5 in NW 6.8 mph 6.8 mph 62 % 0.0 in
01:12 46.2 °F 32.2 °F 29.5 in West 10.5 mph 11.1 mph 58 % 0.0 in
02:12 45.5 °F 30.2 °F 29.5 in WNW 14.3 mph 14.3 mph 55 % 0.0 in
03:12 44.6 °F 28.9 °F 29.5 in NNW 4.0 mph 5.0 mph 54 % 0.0 in
04:12 42.4 °F 29.8 °F 29.5 in NW 4.7 mph 6.4 mph 61 % 0.0 in
05:12 42.6 °F 30 °F 29.5 in Calm   2.1 mph 61 % 0.0 in
06:12 42.6 °F 29.7 °F 29.5 in West 2.6 mph 2.6 mph 60 % 0.0 in
07:12 42.1 °F 29.1 °F 29.5 in North 4.0 mph 7.6 mph 60 % 0.0 in
08:12 42.6 °F 28.8 °F 29.5 in Calm   8.7 mph 58 % 0.0 in
09:12 43.5 °F 29.1 °F 29.5 in Calm     57 % 0.0 in
11:12 45.3 °F 29.1 °F 29.5 in North 2.6 mph 11.9 mph 53 % 0.0 in
12:12 46.2 °F 30.4 °F 29.5 in WSW 13.0 mph 13.0 mph 54 % 0.0 in
13:12 48 °F 31.6 °F 29.5 in NNW 8.7 mph 15.1 mph 53 % 0.0 in
14:12 48 °F 32.5 °F 29.5 in NNW 2.9 mph 4.0 mph 55 % 0.0 in
15:12 48.2 °F 33.6 °F 29.5 in NNE 6.4 mph 15.8 mph 57 % 0.0 in
16:12 48.7 °F 33.6 °F 29.5 in West 5.5 mph 5.5 mph 56 % 0.0 in
17:12 48.4 °F 32.9 °F 29.5 in West 6.1 mph 6.1 mph 55 % 0.0 in
18:12 47.5 °F 32.5 °F 29.5 in NNW 7.6 mph 11.1 mph 56 % 0.0 in
19:12 46.9 °F 31.1 °F 29.5 in NW 10.1 mph 22.7 mph 54 % 0.0 in
20:12 46.9 °F 29.1 °F 29.5 in Calm   8.7 mph 50 % 0.0 in
21:12 45.7 °F 28.6 °F 29.5 in WNW 14.3 mph 20.9 mph 51 % 0.0 in
22:12 44.4 °F 27.3 °F 29.5 in NW 7.6 mph 7.6 mph 51 % 0.0 in
23:12 43.7 °F 26.8 °F 29.5 in WNW 23.3 mph 23.3 mph 51 % 0.0 in
Observations météo à CASSIS
WU-History script by Weather Underground - 1 mb